Time,TemperatureF,DewpointF,PressureIn,WindDirection,WindDirectionDegrees,WindSpeedMPH,WindSpeedGustMPH,Humidity,HourlyPrecipIn,Conditions,Clouds,dailyrainin,SoftwareType,DateUTC
2013-05-19 00:06:00,57.8,58.0,30.08,West,270,1.0,-999.0,100,-99.99,,,0.02,weatherlink.com 1.10,2013-05-19 04:06:00,
2013-05-19 00:21:00,57.8,58.0,30.08,West,259,6.0,-999.0,100,-99.99,,,0.09,weatherlink.com 1.10,2013-05-19 04:21:00,
2013-05-19 00:36:00,57.9,58.0,30.09,West,260,0.0,-999.0,99,-99.99,,,0.12,weatherlink.com 1.10,2013-05-19 04:36:00,
2013-05-19 00:51:00,58.0,58.0,30.08,SW,236,5.0,-999.0,99,-99.99,,,0.14,weatherlink.com 1.10,2013-05-19 04:51:00,
2013-05-19 01:06:00,57.9,58.0,30.08,SW,229,0.0,-999.0,99,-99.99,,,0.14,weatherlink.com 1.10,2013-05-19 05:06:00,
2013-05-19 01:21:00,58.0,58.0,30.08,West,261,6.0,-999.0,99,-99.99,,,0.15,weatherlink.com 1.10,2013-05-19 05:21:00,
2013-05-19 01:36:00,58.0,58.0,30.07,WNW,283,4.0,-999.0,99,-99.99,,,0.22,weatherlink.com 1.10,2013-05-19 05:36:00,
2013-05-19 01:51:00,58.1,58.0,30.07,West,279,3.0,-999.0,99,-99.99,,,0.33,weatherlink.com 1.10,2013-05-19 05:51:00,
2013-05-19 02:06:00,58.1,58.0,30.07,SSW,206,5.0,-999.0,99,-99.99,,,0.52,weatherlink.com 1.10,2013-05-19 06:06:00,
2013-05-19 02:21:00,57.9,58.0,30.07,South,189,8.0,-999.0,99,-99.99,,,0.76,weatherlink.com 1.10,2013-05-19 06:21:00,
2013-05-19 02:36:00,58.0,58.0,30.07,SSW,209,8.0,-999.0,99,-99.99,,,0.77,weatherlink.com 1.10,2013-05-19 06:36:00,
2013-05-19 02:51:00,58.0,58.0,30.06,South,173,0.0,-999.0,99,-99.99,,,0.78,weatherlink.com 1.10,2013-05-19 06:51:00,
2013-05-19 03:06:00,58.2,58.0,30.06,WSW,248,8.0,-999.0,100,-99.99,,,0.89,weatherlink.com 1.10,2013-05-19 07:06:00,
2013-05-19 03:21:00,58.2,58.0,30.06,SSE,166,6.0,-999.0,100,-99.99,,,0.90,weatherlink.com 1.10,2013-05-19 07:21:00,
2013-05-19 03:36:00,58.2,58.0,30.06,SSE,161,1.0,-999.0,100,-99.99,,,0.93,weatherlink.com 1.10,2013-05-19 07:36:00,
2013-05-19 03:51:00,58.2,58.0,30.06,SSE,159,6.0,-999.0,100,-99.99,,,0.93,weatherlink.com 1.10,2013-05-19 07:51:00,
2013-05-19 04:06:00,58.2,58.0,30.06,WSW,248,9.0,-999.0,100,-99.99,,,0.94,weatherlink.com 1.10,2013-05-19 08:06:00,
2013-05-19 04:21:00,58.3,58.0,30.06,SW,216,8.0,-999.0,100,-99.99,,,0.96,weatherlink.com 1.10,2013-05-19 08:21:00,
2013-05-19 04:36:00,58.2,58.0,30.07,SE,131,1.0,-999.0,100,-99.99,,,0.98,weatherlink.com 1.10,2013-05-19 08:36:00,
2013-05-19 04:51:00,58.1,58.0,30.07,SSW,205,4.0,-999.0,100,-99.99,,,0.99,weatherlink.com 1.10,2013-05-19 08:51:00,
2013-05-19 05:06:00,58.0,58.0,30.07,South,175,6.0,-999.0,100,-99.99,,,1.00,weatherlink.com 1.10,2013-05-19 09:06:00,
2013-05-19 05:21:00,58.0,58.0,30.07,SW,229,4.0,-999.0,100,-99.99,,,1.01,weatherlink.com 1.10,2013-05-19 09:21:00,
2013-05-19 05:36:00,57.3,57.0,30.07,South,181,6.0,-999.0,100,-99.99,,,1.01,weatherlink.com 1.10,2013-05-19 09:36:00,
2013-05-19 05:51:00,57.5,58.0,30.07,SSE,161,8.0,-999.0,100,-99.99,,,1.01,weatherlink.com 1.10,2013-05-19 09:51:00,
2013-05-19 06:06:00,57.5,58.0,30.08,SSW,200,6.0,-999.0,100,-99.99,,,1.01,weatherlink.com 1.10,2013-05-19 10:06:00,
2013-05-19 06:21:00,57.6,57.0,30.08,SW,229,4.0,-999.0,99,-99.99,,,1.01,weatherlink.com 1.10,2013-05-19 10:21:00,
2013-05-19 06:36:00,57.6,58.0,30.08,South,179,5.0,-999.0,100,-99.99,,,1.01,weatherlink.com 1.10,2013-05-19 10:36:00,
2013-05-19 06:51:00,57.8,58.0,30.09,South,190,9.0,-999.0,100,-99.99,,,1.01,weatherlink.com 1.10,2013-05-19 10:51:00,
2013-05-19 07:06:00,57.8,58.0,30.09,SW,236,2.0,-999.0,100,-99.99,,,1.01,weatherlink.com 1.10,2013-05-19 11:06:00,
2013-05-19 07:21:00,57.9,58.0,30.09,SSE,158,4.0,-999.0,100,-99.99,,,1.02,weatherlink.com 1.10,2013-05-19 11:21:00,
2013-05-19 07:36:00,57.9,58.0,30.09,SSE,165,2.0,-999.0,100,-99.99,,,1.03,weatherlink.com 1.10,2013-05-19 11:36:00,
2013-05-19 07:51:00,58.0,58.0,30.09,SW,221,2.0,-999.0,100,-99.99,,,1.03,weatherlink.com 1.10,2013-05-19 11:51:00,
2013-05-19 08:06:00,58.1,58.0,30.09,SSW,209,2.0,-999.0,100,-99.99,,,1.03,weatherlink.com 1.10,2013-05-19 12:06:00,
2013-05-19 08:21:00,58.2,58.0,30.10,South,170,5.0,-999.0,100,-99.99,,,1.03,weatherlink.com 1.10,2013-05-19 12:21:00,
2013-05-19 08:36:00,58.2,58.0,30.11,South,184,4.0,-999.0,100,-99.99,,,1.04,weatherlink.com 1.10,2013-05-19 12:36:00,
2013-05-19 08:51:00,58.4,58.0,30.11,SSW,203,6.0,-999.0,100,-99.99,,,1.05,weatherlink.com 1.10,2013-05-19 12:51:00,
2013-05-19 09:06:00,58.4,58.0,30.11,South,169,6.0,-999.0,100,-99.99,,,1.05,weatherlink.com 1.10,2013-05-19 13:06:00,
2013-05-19 09:21:00,58.4,58.0,30.11,SW,227,1.0,-999.0,100,-99.99,,,1.06,weatherlink.com 1.10,2013-05-19 13:21:00,
2013-05-19 09:36:00,58.6,59.0,30.11,SW,227,4.0,-999.0,100,-99.99,,,1.07,weatherlink.com 1.10,2013-05-19 13:36:00,
2013-05-19 09:51:00,58.5,59.0,30.11,SW,227,0.0,-999.0,100,-99.99,,,1.07,weatherlink.com 1.10,2013-05-19 13:51:00,
2013-05-19 10:06:00,58.6,59.0,30.11,SW,227,2.0,-999.0,100,-99.99,,,1.08,weatherlink.com 1.10,2013-05-19 14:06:00,
2013-05-19 10:21:00,58.7,59.0,30.12,SW,227,2.0,-999.0,99,-99.99,,,1.08,weatherlink.com 1.10,2013-05-19 14:21:00,
2013-05-19 10:36:00,58.7,59.0,30.11,South,188,1.0,-999.0,99,-99.99,,,1.08,weatherlink.com 1.10,2013-05-19 14:36:00,
2013-05-19 10:51:00,58.7,59.0,30.11,SSW,207,0.0,-999.0,99,-99.99,,,1.08,weatherlink.com 1.10,2013-05-19 14:51:00,
2013-05-19 11:06:00,59.4,59.0,30.10,South,187,1.0,-999.0,100,-99.99,,,1.08,weatherlink.com 1.10,2013-05-19 15:06:00,
2013-05-19 11:21:00,59.4,59.0,30.10,South,169,5.0,-999.0,100,-99.99,,,1.08,weatherlink.com 1.10,2013-05-19 15:21:00,
2013-05-19 11:36:00,59.6,60.0,30.11,South,173,6.0,-999.0,100,-99.99,,,1.08,weatherlink.com 1.10,2013-05-19 15:36:00,
2013-05-19 11:51:00,59.9,60.0,30.10,SSW,209,0.0,-999.0,100,-99.99,,,1.08,weatherlink.com 1.10,2013-05-19 15:51:00,
2013-05-19 12:06:00,59.5,60.0,30.10,SW,225,0.0,-999.0,100,-99.99,,,1.08,weatherlink.com 1.10,2013-05-19 16:06:00,
2013-05-19 12:21:00,60.3,60.0,30.10,SW,234,4.0,-999.0,100,-99.99,,,1.08,weatherlink.com 1.10,2013-05-19 16:21:00,
2013-05-19 12:36:00,59.6,60.0,30.10,WNW,289,0.0,-999.0,100,-99.99,,,1.08,weatherlink.com 1.10,2013-05-19 16:36:00,
2013-05-19 12:51:00,60.2,60.0,30.08,WNW,289,1.0,-999.0,100,-99.99,,,1.08,weatherlink.com 1.10,2013-05-19 16:51:00,
2013-05-19 13:06:00,60.4,60.0,30.08,SE,146,6.0,-999.0,100,-99.99,,,1.08,weatherlink.com 1.10,2013-05-19 17:06:00,
2013-05-19 13:21:00,60.2,60.0,30.08,South,175,5.0,-999.0,100,-99.99,,,1.08,weatherlink.com 1.10,2013-05-19 17:21:00,
2013-05-19 13:36:00,59.8,60.0,30.08,SSW,204,9.0,-999.0,100,-99.99,,,1.08,weatherlink.com 1.10,2013-05-19 17:36:00,
2013-05-19 13:51:00,60.0,60.0,30.08,South,190,7.0,-999.0,100,-99.99,,,1.08,weatherlink.com 1.10,2013-05-19 17:51:00,
2013-05-19 14:06:00,60.1,60.0,30.08,South,190,6.0,-999.0,100,-99.99,,,1.08,weatherlink.com 1.10,2013-05-19 18:06:00,
2013-05-19 14:21:00,60.5,61.0,30.07,South,169,5.0,-999.0,100,-99.99,,,1.08,weatherlink.com 1.10,2013-05-19 18:21:00,
2013-05-19 14:36:00,60.4,60.0,30.07,SSW,198,3.0,-999.0,100,-99.99,,,1.08,weatherlink.com 1.10,2013-05-19 18:36:00,
2013-05-19 14:51:00,60.2,60.0,30.07,SW,230,5.0,-999.0,100,-99.99,,,1.08,weatherlink.com 1.10,2013-05-19 18:51:00,
2013-05-19 15:06:00,60.7,61.0,30.06,SSW,209,4.0,-999.0,100,-99.99,,,1.08,weatherlink.com 1.10,2013-05-19 19:06:00,
2013-05-19 15:21:00,60.5,61.0,30.06,WSW,244,6.0,-999.0,100,-99.99,,,1.08,weatherlink.com 1.10,2013-05-19 19:21:00,
2013-05-19 15:36:00,60.6,61.0,30.06,West,269,4.0,-999.0,100,-99.99,,,1.08,weatherlink.com 1.10,2013-05-19 19:36:00,
2013-05-19 15:51:00,60.9,61.0,30.06,SSW,194,5.0,-999.0,100,-99.99,,,1.08,weatherlink.com 1.10,2013-05-19 19:51:00,
2013-05-19 16:06:00,60.6,61.0,30.05,SE,141,6.0,-999.0,100,-99.99,,,1.08,weatherlink.com 1.10,2013-05-19 20:06:00,
2013-05-19 16:21:00,60.2,60.0,30.04,SW,227,4.0,-999.0,100,-99.99,,,1.08,weatherlink.com 1.10,2013-05-19 20:21:00,
2013-05-19 16:36:00,59.9,60.0,30.05,South,173,7.0,-999.0,100,-99.99,,,1.08,weatherlink.com 1.10,2013-05-19 20:36:00,
2013-05-19 16:51:00,60.2,60.0,30.05,South,188,5.0,-999.0,100,-99.99,,,1.08,weatherlink.com 1.10,2013-05-19 20:51:00,
2013-05-19 17:06:00,60.2,60.0,30.05,West,272,5.0,-999.0,100,-99.99,,,1.08,weatherlink.com 1.10,2013-05-19 21:06:00,
2013-05-19 17:21:00,60.5,61.0,30.05,SSW,212,4.0,-999.0,100,-99.99,,,1.08,weatherlink.com 1.10,2013-05-19 21:21:00,
2013-05-19 18:37:00,60.3,60.0,30.04,SSW,211,3.0,-999.0,100,-99.99,,,1.08,weatherlink.com 1.10,2013-05-19 22:37:00,
2013-05-19 18:51:00,59.8,60.0,30.04,SSW,200,0.0,-999.0,100,-99.99,,,1.08,weatherlink.com 1.10,2013-05-19 22:51:00,
2013-05-19 19:06:00,59.6,60.0,30.03,SE,134,0.0,-999.0,100,-99.99,,,1.08,weatherlink.com 1.10,2013-05-19 23:06:00,
2013-05-19 19:21:00,59.7,60.0,30.04,SE,136,2.0,-999.0,100,-99.99,,,1.08,weatherlink.com 1.10,2013-05-19 23:21:00,
2013-05-19 19:36:00,59.4,59.0,30.04,SE,144,6.0,-999.0,100,-99.99,,,1.09,weatherlink.com 1.10,2013-05-19 23:36:00,
2013-05-19 19:51:00,58.9,59.0,30.05,SE,145,2.0,-999.0,100,-99.99,,,1.09,weatherlink.com 1.10,2013-05-19 23:51:00,
2013-05-19 20:06:00,58.8,59.0,30.05,SSW,198,3.0,-999.0,100,-99.99,,,1.09,weatherlink.com 1.10,2013-05-20 00:06:00,
2013-05-19 20:21:00,58.6,59.0,30.06,SSW,203,1.0,-999.0,100,-99.99,,,1.09,weatherlink.com 1.10,2013-05-20 00:21:00,
2013-05-19 20:36:00,58.5,59.0,30.06,SW,221,3.0,-999.0,100,-99.99,,,1.09,weatherlink.com 1.10,2013-05-20 00:36:00,
2013-05-19 20:51:00,58.9,59.0,30.06,SSW,202,7.0,-999.0,100,-99.99,,,1.09,weatherlink.com 1.10,2013-05-20 00:51:00,
2013-05-19 21:06:00,59.1,59.0,30.07,West,267,6.0,-999.0,100,-99.99,,,1.09,weatherlink.com 1.10,2013-05-20 01:06:00,
2013-05-19 21:21:00,59.1,59.0,30.07,SW,223,5.0,-999.0,100,-99.99,,,1.09,weatherlink.com 1.10,2013-05-20 01:21:00,
2013-05-19 21:36:00,59.1,59.0,30.07,West,262,3.0,-999.0,100,-99.99,,,1.09,weatherlink.com 1.10,2013-05-20 01:36:00,
2013-05-19 21:51:00,59.0,59.0,30.07,West,262,3.0,-999.0,100,-99.99,,,1.09,weatherlink.com 1.10,2013-05-20 01:51:00,
2013-05-19 22:06:00,58.6,59.0,30.08,West,262,1.0,-999.0,100,-99.99,,,1.09,weatherlink.com 1.10,2013-05-20 02:06:00,
2013-05-19 22:21:00,58.5,59.0,30.08,West,262,0.0,-999.0,100,-99.99,,,1.09,weatherlink.com 1.10,2013-05-20 02:21:00,
2013-05-19 22:36:00,58.1,58.0,30.08,West,262,1.0,-999.0,100,-99.99,,,1.09,weatherlink.com 1.10,2013-05-20 02:36:00,
2013-05-19 22:51:00,58.1,58.0,30.09,West,262,6.0,-999.0,100,-99.99,,,1.09,weatherlink.com 1.10,2013-05-20 02:51:00,
2013-05-19 23:06:00,58.0,58.0,30.08,West,262,3.0,-999.0,100,-99.99,,,1.09,weatherlink.com 1.10,2013-05-20 03:06:00,
2013-05-19 23:21:00,58.1,58.0,30.08,West,262,3.0,-999.0,100,-99.99,,,1.09,weatherlink.com 1.10,2013-05-20 03:21:00,
2013-05-19 23:36:00,58.4,58.0,30.08,West,262,1.0,-999.0,100,-99.99,,,1.09,weatherlink.com 1.10,2013-05-20 03:36:00,
2013-05-19 23:51:00,58.8,59.0,30.08,West,262,3.0,-999.0,100,-99.99,,,1.09,weatherlink.com 1.10,2013-05-20 03:51:00,